Regional Weather Roundup
Issued by NWS

Home | Current Version | Previous Version | Text Only | Print | Product List | Glossary Off
Versions: 1 2 3 4 5 6 7 8 9 10 11 12 13 14 15 16 17 18 19 20 21 22 23 24 25 26 27 28 29 30 31 32 33 34 35 36 37 38 39 40 41 42 43 44 45 46 47 48 49 50

000
ASUS43 KMPX 250510
RWRMN
WEATHER ROUNDUP FOR MINNESOTA
NATIONAL WEATHER SERVICE TWIN CITIES/CHANHASSEN MN
1200 AM CDT FRI APR 25 2014


NOTE: "FAIR" INDICATES FEW OR NO CLOUDS BELOW 12,000 FEET WITH NO
SIGNIFICANT WEATHER AND/OR OBSTRUCTIONS TO VISIBILITY. N/A MEANS
CURRENT SKY AND/OR WEATHER CONDITIONS ARE NOT AVAILABLE.

MNZ060>063-068>070-250600-
   Twin Cities Metro

CITY           SKY/WX    TMP DP  RH WIND       PRES   REMARKS
TWIN CITIES    PTCLDY    40  38  93 SW3       29.73S
ST PAUL        CLEAR     37  36  96 CALM      29.74S
CRYSTAL        CLEAR     37  35  92 CALM      29.72R
BLAINE         CLEAR     37  37 100 CALM      29.73R FOG
EDEN PRAIRIE   CLEAR     40  38  93 CALM      29.72S
LAKEVILLE      CLEAR     34  34 100 CALM      29.73F FOG
SOUTH ST PAUL  CLEAR     41  39  91 CALM      29.73S
LAKE ELMO      FAIR      37  37 100 CALM      29.72F
$$
MNZ001>005-007-008-013>017-022>024-027-028-250600-
   Northwest Minnesota

CITY           SKY/WX    TMP DP  RH WIND       PRES   REMARKS
BEMIDJI        CLOUDY    32  32  99 CALM      29.68S
HALLOCK        DRIZZLE   36  34  93 NE3       29.73F
ROSEAU         LGT SNOW  34  28  80 CALM      29.73S
WARROAD        LGT SNOW  32  28  86 NE6       29.73S WCI  26
THIEF RVR FALL CLOUDY    34  30  86 NE7       29.71S WCI  28
CROOKSTON      CLOUDY    36  36 100 NE5       29.72R
FOSSTON        CLOUDY    32  32 100 CALM      29.70S FOG
DETROIT LAKES  PTCLDY    36  36 100 SW5       29.68S FOG
MOORHEAD       PTCLDY    39  39 100 NW6       29.72R FOG
PARK RAPIDS    FOG       33  33 100 CALM      29.66F VSB 1/2
$$
MNZ006-009>011-018-025>026-250600-
   North Central Minnesota

CITY           SKY/WX    TMP DP  RH WIND       PRES   REMARKS
BAUDETTE       LGT SNOW  32  32 100 NE7       29.71F VSB 1   WCI  26
FLAG ISLAND    LGT SNOW  32  30  93 NE5       29.74F WCI  27
INTL FALLS     LGT SNOW  33  31  92 E6        29.70F FOG     WCI  28
WASKISH        LGT SNOW  34  32  93 CALM      29.69F
BIG FORK       CLOUDY    34  32  93 NE1       29.68F
LONGVILLE      CLOUDY    32  32 100 CALM      29.68S FOG
GRAND RAPIDS   CLOUDY    32  30  93 CALM      29.68S VSB 3/4
CRANE LAKE     LGT SNOW  30  30 100 CALM      29.72F
ORR            LGT SNOW  32  30  93 CALM      29.66F
COOK           LGT SNOW  32  32 100 CALM      29.68F
$$
MNZ012-019>021-037-250600-
   Northeast Minnesota

CITY           SKY/WX    TMP DP  RH WIND       PRES   REMARKS
DULUTH         LGT SNOW  32  30  92 E5        29.66F FOG     WCI  27
ELY            LGT SNOW  32  30  93 E12       29.66F WCI  23
HIBBING        LGT SNOW  33  31  92 CALM      29.67S FOG
EVELETH        LGT SNOW  32  32 100 CALM      29.67F
DULUTH HARBOR  MIX PCPN  34  30  86 NE6       29.70S WCI  29
TWO HARBORS    LGT SNOW  32  27  80 NE8       29.66F WCI  25
SILVER BAY     LGT SNOW  30  30 100 NE12G17   29.67F WCI  21
GRAND MARAIS     N/A     34  32  92 NE20G30   29.78F WCI  23
G MARAIS ARPRT LGT SNOW  30  27  86 E16G29    29.74S VSB 3/4 WCI  19
$$
MNZ029>031-032-039>041-046>048-054>057-064-250600-
   West Central Minnesota

CITY           SKY/WX    TMP DP  RH WIND       PRES   REMARKS
FERGUS FALLS   PTCLDY    41  36  81 CALM      29.69R
WHEATON        CLEAR     43  39  87 SW9       29.73F
MORRIS         CLEAR     41  37  87 W8        29.71S
ALEXANDRIA     CLEAR     37  35  92 SW8       29.71S
ELBOW LAKE     FAIR      35  34  98 SW6       29.70S WCI  30
WADENA         FOG       32  30  93 CALM      29.67S VSB<1/4
GLENWOOD       CLEAR     36  36 100 SW5       29.72S
APPLETON       CLEAR     39  36  87 CALM      29.72F
BENSON         CLEAR     36  34  93 CALM      29.72F
ORTONVILLE     CLEAR     41  37  87 SW5       29.73F
MADISON        CLEAR     43  41  93 SW9       29.74R
WILLMAR        FAIR      39  37  93 W5        29.74S
$$
MNZ033>034-036-042>043-049>051-058-059-250600-
   Central Minnesota

CITY           SKY/WX    TMP DP  RH WIND       PRES   REMARKS
ST CLOUD       PTCLDY    38  35  89 SW8       29.71R FOG
SAUK CENTRE    FAIR      34  34  99 S3        29.71S
PAYNESVILLE    CLEAR     38  37  95 CALM      29.72S
AITKIN         MIX PCPN  36  30  80 CALM      29.66F
PINE RIVER     RAIN      34  34 100 CALM      29.71S
BRAINERD       FOG       39  35  86 CALM      29.68F VSB 1/4
STAPLES        FOG       34  34 100 SW3       29.69R VSB 1/4
LONG PRAIRIE   FAIR      36  34  93 CALM      29.70S
LITTLE FALLS   FOG       32  30  93 CALM      29.69F VSB 1/4
LITCHFIELD     FOG       37  37 100 CALM      29.73S VSB 3/4
BUFFALO        MOCLDY    37  35  93 CALM      29.74R
MAPLE LAKE       N/A     35  35  99 CALM      29.73R FOG
$$
MNZ037-044-045-052-053-250600-
   East Central Minnesota

CITY           SKY/WX    TMP DP  RH WIND       PRES   REMARKS
PRINCETON      PTCLDY    36  34  93 S3        29.72R FOG
MORA           CLOUDY    36  34  93 CALM      29.72R FOG
CAMBRIDGE      CLEAR     37  30  75 CALM      29.70R HAZE
RUSH CITY      MOCLDY    35  34  95 CALM      29.70F
MOOSE LAKE     CLOUDY    32  32 100 CALM      29.67S
HINCKLEY       CLOUDY    36  36 100 CALM      29.69S
CLOQUET        LGT SNOW  32  32 100 CALM      29.67S
MCGREGOR       CLOUDY    32  32 100 CALM      29.68F
$$
MNZ071>073-080-081-089-090-097-098-250600-
   Southwest Minnesota

CITY           SKY/WX    TMP DP  RH WIND       PRES   REMARKS
MONTEVIDEO     CLEAR     43  43 100 W9        29.74S
GRANITE FALLS  CLEAR     43  38  84 S9        29.76R
CANBY          CLEAR     40  39  95 CALM      29.75F
MARSHALL       CLEAR     39  36  87 S8        29.74F
REDWOOD FALLS  CLEAR     46  40  79 SW12      29.74S
OLIVIA         CLEAR     39  36  87 SW7       29.72F
PIPESTONE      CLEAR     45  39  81 S7        29.75S
WINDOM         FOG       39  37  93 CALM      29.76S VSB 3/4
WORTHINGTON    CLEAR     45  37  76 S6        29.78F
JACKSON        CLEAR     43  37  81 SW6       29.77S
TRACY          CLEAR     43  41  90 CALM      29.75S
SLAYTON        CLEAR     43  40  89 S7        29.77S
$$
MNZ065>067-074>077-082>085-091>093-250600-
   South Central Minnesota

CITY           SKY/WX    TMP DP  RH WIND       PRES   REMARKS
MANKATO        CLEAR     43  39  87 S3        29.74F
NEW ULM        CLEAR     41  41 100 SW5       29.74S
ST JAMES       CLEAR     43  39  87 SW5       29.77R
FAIRMONT       CLEAR     43  37  81 CALM      29.78S
GLENCOE        CLEAR     39  36  89 CALM      29.73S FOG
FARIBAULT      CLEAR     39  36  87 CALM      29.74F HAZE
OWATONNA       PTCLDY    37  36  93 CALM      29.75S FOG
WASECA         FOG       36  32  87 CALM      29.76S VSB 1/4
ALBERT LEA     FOG       39  39 100 SW3       29.75R VSB 1/2
$$
MNZ078>079-086>088-094>096-250600-
   Southeast Minnesota

CITY           SKY/WX    TMP DP  RH WIND       PRES   REMARKS
ROCHESTER      MOCLDY    40  36  86 NW8       29.74S
RED WING       PTCLDY    43  39  87 CALM      29.72F
STANTON        CLEAR     39  37  91 S3        29.73S
DODGE CENTER   PTCLDY    45  43  93 NW5       29.74S
WINONA         CLOUDY    45  41  87 NW5       29.74S
AUSTIN         MOCLDY    39  37  93 CALM      29.74S FOG
PRESTON        CLOUDY    41  38  91 NW3       29.75S
$$
ABBREVIATIONS USED IN REMARKS
   TC - TEMPERATURES IN CELSIUS
  WCI - WIND CHILL INDEX
   HX - HEAT INDEX
  VSB - VISIBILITY
$$


USA.gov is the U.S. government's official web portal to all federal, state and local government web resources and services.